Aeroporto :
LOGIN :

Iscrizione | Disclaimer

   EN    FR    IT 

 










Sommario :    VFR   VFR Marginale   IFR   IFR Intensivo   IFR Molto Intensivo
Visibilità : 
Base nubi : 
>= 8 km
>= 3000ft
5 / 8 km
1000 / 3000 ft
1500m / 5 km
500 / 1000 ft
800 / 1500m
200 / 500 ft
< 800m
< 200 ft
Simboli :   Temporali  Nebbia  Neve Forte  Precipitazioni Forti  Vento > 20 kt
SIGMETs :   Varie  Temporali  Ghiacco  Turbolenza  Onda orograficha  Ceneri Vulcaniche






- Altitudine del aeroporto : 1789 ft
- Codice IATA : PRN


BKPR - Pristina

ULTIMO METAR :
  • 290300Z 00000KT 9999 FEW090 01/M02 Q1012 NOSIG RMK 17010095

METARs OBSOLETI :
  • 290230Z 00000KT 9999 FEW090 02/M02 Q1012 NOSIG RMK 17010095
  • 290200Z VRB01KT 9999 FEW090 01/M02 Q1012 NOSIG RMK 17010095
  • 290130Z VRB02KT 9999 FEW090 02/M02 Q1012 NOSIG RMK 17010095
  • 290100Z VRB01KT 9999 FEW090 02/M02 Q1012 NOSIG RMK 17010095

TAF TAF BKPR
Valido dal 29 a 00 ore il 30 a 00 ore UTC


282330Z 2900/2924 33006KT 9999 SCT040 BKN090
BECMG 2901/2903 4000 BR
TEMPO 2903/2906 2000
BECMG 2907/2909 9999 NSW



MetMap, La meteo Aeronautica in un colpo d'occhio ! - Copyright ORBIFLY Dicembre 2007 - Disclaimer

ORBIFLY MET'MAP TEAM :

Programmazione e sviluppo : Alexandra Zaïnal
Concezione : Baudouin d'Aumeries
Aiuto per la programmazione : Marc-Olivier Méhu
Supporto tecnico e logistico : Manuel Goepfert
Aiuto per la traduzione : Arnaldo La Scala

Contatto : metmap@orbifly.com




FONTI E CREDITI :

   NOAA